Regional Weather Roundup
Issued by NWS

Home | Current Version | Previous Version | Text Only | Print | Product List | Glossary On
Versions: 1 2 3 4 5 6 7 8 9 10 11 12 13 14 15 16 17 18 19 20 21 22 23 24 25 26 27 28 29 30 31 32 33 34 35 36 37 38 39 40 41 42 43 44 45 46 47 48 49 50
000
ASUS45 KPSR 301010
RWRAZ

ARIZONA REGIONAL HOURLY WEATHER ROUNDUP
NATIONAL WEATHER SERVICE PHOENIX AZ
300 AM MST TUE SEP 30 2014

NOTE: FAIR INDICATES FEW OR NO CLOUDS BELOW 12,000 FEET WITH NO
SIGNIFICANT WEATHER AND/OR OBSTRUCTIONS TO VISIBILITY.

AZZ001>003-036-301100-
NORTHWEST ARIZONA

CITY           SKY/WX    TMP DP  RH WIND       PRES   REMARKS
BULLHEAD CITY  CLEAR     72  37  28 CALM      29.85F
KINGMAN        NOT AVBL
$$

AZZ004>008-015-016-018-301100-
NORTH CENTRAL ARIZONA

CITY           SKY/WX    TMP DP  RH WIND       PRES   REMARKS
GRAND CANYON   CLEAR     35  33  92 CALM      30.12F
PRESCOTT       CLEAR     48  37  65 S7        30.06F
FLAGSTAFF      CLEAR     35  31  85 CALM      30.13F
PAYSON         CLEAR     48  39  71 NW5       30.06S
$$

AZZ009>014-017-301100-
NORTHEAST ARIZONA

CITY           SKY/WX    TMP DP  RH WIND       PRES   REMARKS
WINSLOW        CLEAR     49  40  71 CALM      30.05S
SAINT JOHNS    CLEAR     48  35  60 S3        30.06F
WINDOW ROCK    CLEAR     38  34  85 CALM      30.12
SHOW LOW       CLEAR     39  34  81 S3        30.11F
$$

AZZ023-301100-
GREATER PHOENIX AREA

CITY           SKY/WX    TMP DP  RH WIND       PRES   REMARKS
PHOENIX        CLEAR     70  53  54 CALM      29.84S
BUCKEYE          N/A     64  46  52 NE8       29.85S
LUKE AFB       CLEAR     64  49  58 N2        29.84S
DEER VALLEY    CLEAR     65  50  58 CALM      29.85S
SCOTTSDALE     CLEAR     66  51  58 CALM      29.87S
MESA-GATEWAY   CLEAR     61  54  77 E5        29.88S
$$

AZZ027-028-301100-
SOUTHWEST MARICOPA COUNTY AND PINAL COUNTY

CITY           SKY/WX    TMP DP  RH WIND       PRES   REMARKS
CASA GRANDE    CLEAR     61  48  63 CALM      29.87F
$$

AZZ503-504-507>509-301100-
SOUTHEAST ARIZONA

CITY           SKY/WX    TMP DP  RH WIND       PRES   REMARKS
TUCSON         CLEAR     63  44  50 S5        29.95F
DAVIS-MONTHAN  CLEAR     61  43  52 SE8       29.93F
NOGALES        CLEAR     56  47  71 NE6       29.98F
SIERRA VISTA   PTCLDY    61  55  82 S6        30.02F
DOUGLAS        CLEAR     58  48  69 N9        30.00F
SAFFORD        CLEAR     57  35  43 E6        29.93F
$$

AZZ020-021-025-026-031-301100-
SOUTHWEST ARIZONA

CITY           SKY/WX    TMP DP  RH WIND       PRES   REMARKS
YUMA           CLEAR     73  45  36 CALM      29.81F
$$

CAZ031-033-041-043-047-048-061-301100-
SOUTHERN CALIFORNIA

CITY           SKY/WX    TMP DP  RH WIND       PRES   REMARKS
DOWNTOWN L.A.  CLEAR     64  59  83 CALM      29.87S
L.A. AIRPORT   CLEAR     65  61  87 CALM      29.87F
SAN DIEGO      CLEAR     68  59  73 CALM      29.87F
BURBANK        CLEAR     63  49  60 CALM      29.87F
ONTARIO        CLEAR     64  55  72 CALM      29.88S
RIVERSIDE      CLEAR     62  55  77 CALM      29.89S
PALM SPRINGS   CLEAR     74  44  34 NW8       29.85F
EL CENTRO NAS  CLEAR     67  38  34 W5        29.81S
IMPERIAL       CLEAR     65  44  46 W3        29.81S
BLYTHE         CLEAR     71  41  33 CALM      29.82F
NEEDLES        CLEAR     70  38  31 S5        29.85F
$$

NVZ020-UTZ003-301100-
SOUTHERN NEVADA-UTAH

CITY           SKY/WX    TMP DP  RH WIND       PRES   REMARKS
LAS VEGAS      CLEAR     67  38  34 S8        29.88F
SALT LAKE CITY CLOUDY    53  47  79 E6        29.98F
$$

NMZ009-TXZ055-301100-
NEW MEXICO-WEST TEXAS

CITY           SKY/WX    TMP DP  RH WIND       PRES   REMARKS
ALBUQUERQUE    CLEAR     49  36  61 SE5       30.05S
EL PASO        PTCLDY    72  55  55 SW9       29.93S
$$


........................KEY........................
SKY/WX - SKY CONDITION/WEATHER
TMP    - TEMPERATURE IN FAHRENHEIT
DP     - DEW POINT IN FAHRENHEIT
RH     - RELATIVE HUMIDITY IN PERCENT
WIND   - DIRECTION AND SPEED IN MILES PER HOUR (MPH)
VRB    - VARIABLE WIND DIRECTION
PRES   - MEAN SEA LEVEL PRESSURE IN INCHES OF MERCURY
         F - FALLING PRESSURE   R - RISING PRESSURE
         S - STEADY PRESSURE
VSB    - VISIBILITY IN MILES
HX     - HEAT INDEX IN FAHRENHEIT
WCI    - WIND CHILL INDEX IN FAHRENHEIT
TC     - TEMPERATURE IN CELSIUS WHICH IS ALSO KNOWN AS
         TEMPERATURE IN CENTIGRADE
AFB    - AIR FORCE BASE
         LUKE AFB IS LUKE AIR FORCE BASE
         DAVIS-MONTHAN IS DAVIS-MONTHAN AIR FORCE BASE
NAS    - NAVAL AIR STATION
         EL CENTRO NAS IS EL CENTRO NAVAL AIR STATION
N/A    - NOT AVAILABLE



USA.gov is the U.S. government's official web portal to all federal, state and local government web resources and services.